{"data":{"norad_id":58523,"epoch":"2026-05-25T01:21:19.477152Z","epoch_age_seconds":70439,"freshness":"FRESH","line1":"1 58523U 23191R   26145.05647543 -.00000402  00000+0 -50837-5 0  9996","line2":"2 58523  43.0036  31.8966 0001064 269.5421  90.5308 15.27575622137103","mean_motion":15.27575622,"eccentricity":0.0001064,"inclination_deg":43.0036,"raan_deg":31.8966,"arg_perigee_deg":269.5421,"mean_anomaly_deg":90.5308,"bstar":-5.0837e-6,"rev_number":13710,"period_min":94.267018880195,"perigee_km":482.33217378249,"apogee_km":483.79223697339,"semimajor_km":6861.1992053779,"source":"CELESTRAK","updated_at":"2026-05-25T13:38:18.658147Z"}}